| time (UTC) | temp F | wind direction | speed MPH | gust MPH | rain 1hr in | rain 24hr in | rain mn in | humidity % | barometer mb |
| 20260506211707 | 53 | 160 | 0.0 | 0.0 | 0.00 | 0.66 | 0.66 | 99 | 1003.3 |
| 20260506211204 | 54 | 132 | 1.0 | 1.0 | 0.00 | 0.66 | 0.66 | 99 | 1003.8 |
| 20260506210701 | 56 | 238 | 0.0 | 0.0 | 0.00 | 0.66 | 0.66 | 99 | 1003.5 |
| 20260506210158 | 59 | 259 | 1.0 | 1.0 | 0.00 | 0.66 | 0.66 | 99 | 1003.5 |
| 20260506205656 | 59 | 45 | 0.0 | 0.0 | 0.05 | 0.66 | 0.66 | 99 | 1003.6 |
| 20260506205155 | 59 | 45 | 0.0 | 0.0 | 0.05 | 0.66 | 0.66 | 99 | 1003.5 |
| 20260506204654 | 59 | 45 | 0.0 | 0.0 | 0.07 | 0.65 | 0.65 | 99 | 1003.4 |
| 20260506204150 | 59 | 45 | 0.0 | 0.0 | 0.07 | 0.65 | 0.65 | 99 | 1003.1 |
| 20260506203648 | 59 | 45 | 0.0 | 0.0 | 0.05 | 0.64 | 0.64 | 99 | 1003.2 |
| 20260506203145 | 59 | 46 | 0.0 | 0.0 | 0.05 | 0.64 | 0.64 | 99 | 1003.1 |
| 20260506202643 | 59 | 236 | 0.0 | 0.0 | 0.05 | 0.64 | 0.64 | 99 | 1003.0 |
| 20260506202139 | 59 | 237 | 0.0 | 0.0 | 0.07 | 0.63 | 0.63 | 99 | 1003.2 |
| 20260506201636 | 59 | 266 | 1.0 | 1.0 | 0.12 | 0.63 | 0.63 | 99 | 1003.0 |
| 20260506201132 | 59 | 148 | 0.0 | 0.0 | 0.19 | 0.62 | 0.62 | 99 | 1003.4 |
| 20260506200629 | 59 | 82 | 0.0 | 0.0 | 0.14 | 0.61 | 0.61 | 99 | 1003.4 |
| 20260506200126 | 59 | 104 | 0.0 | 0.0 | 0.12 | 0.60 | 0.60 | 99 | 1003.1 |
| 20260506195622 | 59 | 104 | 0.0 | 0.0 | 0.17 | 0.59 | 0.59 | 99 | 1003.2 |
| 20260506195119 | 59 | 105 | 0.0 | 0.0 | 0.12 | 0.58 | 0.58 | 99 | 1003.3 |
| 20260506194617 | 59 | 104 | 0.0 | 0.0 | 0.00 | 0.56 | 0.56 | 99 | 1003.1 |
| 20260506194113 | 60 | 104 | 0.0 | 0.0 | 0.00 | 0.56 | 0.56 | 99 | 1003.6 |
| 20260506193611 | 60 | 104 | 0.0 | 0.0 | 0.07 | 0.56 | 0.56 | 99 | 1003.4 |
| 20260506193108 | 60 | 104 | 0.0 | 0.0 | 0.07 | 0.56 | 0.56 | 99 | 1003.8 |
| 20260506192605 | 59 | 105 | 0.0 | 0.0 | 0.07 | 0.56 | 0.56 | 99 | 1003.5 |
| 20260506192100 | 59 | 93 | 0.0 | 0.0 | 0.00 | 0.55 | 0.55 | 99 | 1003.5 |
| 20260506191557 | 59 | 131 | 0.0 | 0.0 | 0.00 | 0.55 | 0.55 | 99 | 1003.8 |
| 20260506191053 | 60 | 112 | 1.0 | 1.0 | 0.00 | 0.55 | 0.55 | 99 | 1003.6 |
| 20260506190551 | 59 | 93 | 0.0 | 0.0 | 0.00 | 0.55 | 0.55 | 99 | 1003.7 |
| 20260506190048 | 59 | 156 | 0.0 | 0.0 | 0.05 | 0.55 | 0.55 | 99 | 1003.5 |
| 20260506185545 | 59 | 157 | 0.0 | 0.0 | 0.05 | 0.55 | 0.55 | 99 | 1003.6 |
| 20260506185041 | 59 | 156 | 0.0 | 0.0 | 0.00 | 0.54 | 0.54 | 99 | 1003.9 |
| 20260506184538 | 59 | 157 | 0.0 | 0.0 | 0.00 | 0.54 | 0.54 | 99 | 1003.9 |
| 20260506184035 | 59 | 156 | 0.0 | 0.0 | 0.00 | 0.54 | 0.54 | 99 | 1004.0 |
| 20260506183531 | 59 | 157 | 0.0 | 0.0 | 0.00 | 0.54 | 0.54 | 99 | 1003.8 |
| 20260506183028 | 59 | 157 | 0.0 | 0.0 | 0.07 | 0.54 | 0.54 | 99 | 1003.8 |
| 20260506182525 | 58 | 157 | 0.0 | 0.0 | 0.07 | 0.54 | 0.54 | 99 | 1004.0 |
| 20260506182022 | 58 | 157 | 0.0 | 0.0 | 0.12 | 0.54 | 0.54 | 99 | 1004.0 |
| 20260506181520 | 58 | 157 | 0.0 | 0.0 | 0.12 | 0.53 | 0.53 | 99 | 1004.1 |
| 20260506181017 | 58 | 157 | 0.0 | 0.0 | 0.12 | 0.52 | 0.52 | 99 | 1004.1 |
| 20260506180514 | 57 | 158 | 0.0 | 0.0 | 0.17 | 0.51 | 0.51 | 99 | 1004.4 |
| 20260506180010 | 57 | 160 | 0.0 | 0.0 | 0.38 | 0.50 | 0.50 | 99 | 1004.3 |
| 20260506175507 | 57 | 160 | 0.0 | 0.0 | 0.42 | 0.48 | 0.48 | 99 | 1004.7 |
| 20260506175003 | 57 | 159 | 0.0 | 0.0 | 0.35 | 0.45 | 0.45 | 99 | 1004.6 |
| 20260506174502 | 57 | 159 | 0.0 | 0.0 | 0.35 | 0.41 | 0.41 | 99 | 1004.4 |
| 20260506173957 | 57 | 147 | 0.0 | 0.0 | 0.73 | 0.39 | 0.39 | 99 | 1004.4 |
| 20260506173455 | 57 | 150 | 2.0 | 2.0 | 0.90 | 0.36 | 0.36 | 99 | 1004.7 |
| 20260506172946 | 57 | 175 | 0.0 | 0.0 | 0.61 | 0.26 | 0.26 | 99 | 1004.7 |
| 20260506172444 | 58 | 180 | 1.0 | 1.0 | 0.47 | 0.20 | 0.20 | 99 | 1005.2 |
| 20260506171940 | 58 | 332 | 0.0 | 1.0 | 0.31 | 0.15 | 0.15 | 99 | 1005.4 |
| 20260506171437 | 58 | 331 | 0.0 | 0.0 | 0.24 | 0.12 | 0.12 | 99 | 1005.3 |
| 20260506170930 | 58 | 331 | 0.0 | 0.0 | 0.19 | 0.10 | 0.10 | 99 | 1005.0 |
| 20260506170425 | 58 | 73 | 0.0 | 0.0 | 0.07 | 0.08 | 0.08 | 99 | 1005.1 |
| 20260506165919 | 58 | 352 | 0.0 | 0.0 | 0.05 | 0.07 | 0.07 | 99 | 1004.8 |
| 20260506165417 | 58 | 352 | 0.0 | 0.0 | 0.05 | 0.07 | 0.07 | 99 | 1005.0 |
| 20260506164912 | 58 | 352 | 0.0 | 0.0 | 0.00 | 0.06 | 0.06 | 99 | 1004.9 |
| 20260506164409 | 58 | 352 | 0.0 | 0.0 | 0.07 | 0.06 | 0.06 | 99 | 1005.2 |
| 20260506163907 | 58 | 352 | 0.0 | 0.0 | 0.07 | 0.06 | 0.06 | 99 | 1005.2 |
| 20260506163401 | 58 | 352 | 0.0 | 0.0 | 0.05 | 0.05 | 0.05 | 99 | 1005.1 |
| 20260506162856 | 58 | 352 | 0.0 | 0.0 | 0.05 | 0.05 | 0.05 | 99 | 1005.2 |
| 20260506162355 | 58 | 352 | 0.0 | 0.0 | 0.00 | 0.04 | 0.04 | 99 | 1005.2 |
| 20260506161852 | 58 | 352 | 0.0 | 0.0 | 0.00 | 0.04 | 0.04 | 99 | 1005.8 |
| 20260506161349 | 58 | 352 | 0.0 | 0.0 | 0.07 | 0.04 | 0.04 | 99 | 1005.6 |
| 20260506160847 | 58 | 352 | 0.0 | 0.0 | 0.07 | 0.04 | 0.04 | 99 | 1005.6 |
| 20260506160343 | 58 | 352 | 0.0 | 0.0 | 0.00 | 0.03 | 0.03 | 99 | 1005.6 |
| 20260506155842 | 58 | 352 | 0.0 | 0.0 | 0.00 | 0.03 | 0.03 | 99 | 1005.8 |
| 20260506155338 | 58 | 351 | 0.0 | 0.0 | 0.00 | 0.03 | 0.03 | 99 | 1005.7 |
| 20260506153450 | 58 | 217 | 0.0 | 0.0 | 0.05 | 0.03 | 0.03 | 99 | 1006.2 |
| 20260506152948 | 58 | 218 | 0.0 | 0.0 | 0.00 | 0.02 | 0.02 | 99 | 1006.4 |
| 20260506152444 | 57 | 216 | 0.0 | 0.0 | 0.00 | 0.02 | 0.02 | 99 | 1006.4 |
| 20260506151943 | 57 | 216 | 0.0 | 0.0 | 0.00 | 0.02 | 0.02 | 99 | 1006.7 |
| 20260506151440 | 57 | 216 | 0.0 | 0.0 | 0.00 | 0.02 | 0.02 | 99 | 1006.3 |
| 20260506150938 | 57 | 216 | 0.0 | 0.0 | 0.00 | 0.02 | 0.02 | 99 | 1006.6 |
| 20260506150433 | 57 | 216 | 0.0 | 0.0 | 0.07 | 0.02 | 0.02 | 98 | 1006.6 |
| 20260506145930 | 57 | 216 | 0.0 | 0.0 | 0.07 | 0.02 | 0.02 | 98 | 1006.5 |
| 20260506145426 | 57 | 216 | 0.0 | 0.0 | 0.00 | 0.01 | 0.01 | 98 | 1006.6 |
| 20260506144924 | 57 | 216 | 0.0 | 0.0 | 0.00 | 0.01 | 0.01 | 98 | 1006.7 |
| 20260506144415 | 57 | 216 | 0.0 | 0.0 | 0.00 | 0.01 | 0.01 | 97 | 1006.8 |
| 20260506143914 | 57 | 216 | 0.0 | 0.0 | 0.05 | 0.01 | 0.01 | 97 | 1006.7 |
| 20260506143410 | 57 | 216 | 0.0 | 0.0 | 0.05 | 0.01 | 0.01 | 96 | 1006.7 |
| 20260506142909 | 57 | 216 | 0.0 | 0.0 | 0.00 | 0.00 | 0.00 | 95 | 1006.2 |
| 20260506142407 | 58 | 217 | 0.0 | 0.0 | 0.00 | 0.00 | 0.00 | 92 | 1006.7 |
| 20260506141904 | 58 | 217 | 1.0 | 1.0 | 0.00 | 0.00 | 0.00 | 92 | 1006.5 |
| 20260506141401 | 58 | 327 | 0.0 | 0.0 | 0.00 | 0.00 | 0.00 | 92 | 1006.6 |
| 20260506140900 | 58 | 326 | 0.0 | 0.0 | 0.00 | 0.00 | 0.00 | 91 | 1006.7 |
| 20260506140356 | 58 | 326 | 0.0 | 0.0 | 0.00 | 0.00 | 0.00 | 91 | 1006.5 |
| 20260506135854 | 58 | 326 | 0.0 | 0.0 | 0.00 | 0.00 | 0.00 | 91 | 1006.7 |
| 20260506135351 | 58 | 326 | 0.0 | 0.0 | 0.00 | 0.00 | 0.00 | 90 | 1006.3 |
| 20260506134847 | 58 | 326 | 0.0 | 0.0 | 0.00 | 0.00 | 0.00 | 91 | 1006.7 |
| 20260506134343 | 58 | 327 | 0.0 | 0.0 | 0.00 | 0.00 | 0.00 | 90 | 1006.5 |
| 20260506133840 | 57 | 327 | 0.0 | 0.0 | 0.00 | 0.00 | 0.00 | 91 | 1006.7 |
| 20260506133337 | 57 | 327 | 0.0 | 0.0 | 0.00 | 0.00 | 0.00 | 92 | 1006.6 |
| 20260506132833 | 57 | 326 | 0.0 | 0.0 | 0.00 | 0.00 | 0.00 | 92 | 1006.5 |
| 20260506132331 | 57 | 326 | 0.0 | 0.0 | 0.00 | 0.00 | 0.00 | 92 | 1006.5 |
| 20260506131829 | 57 | 291 | 0.0 | 0.0 | 0.00 | 0.00 | 0.00 | 92 | 1006.6 |
| 20260506131325 | 57 | 213 | 0.0 | 1.0 | 0.00 | 0.00 | 0.00 | 91 | 1006.6 |
| 20260506130822 | 57 | 13 | 0.0 | 0.0 | 0.00 | 0.00 | 0.00 | 93 | 1007.1 |
| 20260506130319 | 56 | 325 | 0.0 | 0.0 | 0.00 | 0.00 | 0.00 | 93 | 1007.2 |
| 20260506125817 | 56 | 323 | 0.0 | 0.0 | 0.00 | 0.00 | 0.00 | 95 | 1007.3 |
| 20260506125314 | 56 | 297 | 0.0 | 0.0 | 0.00 | 0.00 | 0.00 | 94 | 1007.4 |
| 20260506124813 | 56 | 297 | 0.0 | 0.0 | 0.00 | 0.00 | 0.00 | 94 | 1007.4 |
| 20260506124309 | 56 | 297 | 0.0 | 0.0 | 0.00 | 0.00 | 0.00 | 95 | 1006.7 |
| 20260506123807 | 56 | 297 | 0.0 | 0.0 | 0.00 | 0.00 | 0.00 | 95 | 1006.5 |
| 20260506123305 | 56 | 296 | 0.0 | 0.0 | 0.00 | 0.00 | 0.00 | 95 | 1007.1 |
| 20260506122801 | 56 | 296 | 0.0 | 0.0 | 0.00 | 0.00 | 0.00 | 95 | 1007.2 |
| 20260506122258 | 56 | 296 | 0.0 | 0.0 | 0.00 | 0.00 | 0.00 | 95 | 1007.3 |
| 20260506121757 | 56 | 296 | 0.0 | 0.0 | 0.00 | 0.00 | 0.00 | 96 | 1007.1 |
| 20260506121253 | 56 | 296 | 0.0 | 0.0 | 0.00 | 0.00 | 0.00 | 96 | 1006.9 |
| 20260506120751 | 56 | 296 | 0.0 | 0.0 | 0.00 | 0.00 | 0.00 | 96 | 1007.2 |
| 20260506120248 | 56 | 296 | 0.0 | 0.0 | 0.00 | 0.00 | 0.00 | 96 | 1007.2 |
| 20260506115746 | 56 | 296 | 0.0 | 0.0 | 0.00 | 0.00 | 0.00 | 96 | 1007.2 |
| 20260506115244 | 56 | 296 | 0.0 | 0.0 | 0.00 | 0.00 | 0.00 | 96 | 1007.4 |
| 20260506114741 | 56 | 296 | 0.0 | 0.0 | 0.00 | 0.00 | 0.00 | 96 | 1007.2 |
| 20260506114239 | 55 | 296 | 0.0 | 0.0 | 0.00 | 0.00 | 0.00 | 96 | 1007.2 |
| 20260506113737 | 55 | 296 | 0.0 | 0.0 | 0.00 | 0.00 | 0.00 | 96 | 1006.9 |
| 20260506113235 | 55 | 296 | 0.0 | 0.0 | 0.00 | 0.00 | 0.00 | 97 | 1007.2 |
| 20260506112730 | 55 | 296 | 0.0 | 0.0 | 0.00 | 0.00 | 0.00 | 97 | 1007.1 |
| 20260506112228 | 55 | 296 | 0.0 | 0.0 | 0.00 | 0.00 | 0.00 | 98 | 1007.3 |
| 20260506111725 | 55 | 296 | 0.0 | 0.0 | 0.00 | 0.00 | 0.00 | 98 | 1007.2 |
| 20260506111224 | 55 | 296 | 0.0 | 0.0 | 0.00 | 0.00 | 0.00 | 98 | 1007.3 |
| 20260506110721 | 55 | 296 | 0.0 | 0.0 | 0.00 | 0.00 | 0.00 | 98 | 1007.2 |
| 20260506110218 | 55 | 296 | 0.0 | 0.0 | 0.00 | 0.00 | 0.00 | 98 | 1007.2 |
| 20260506105714 | 54 | 296 | 0.0 | 0.0 | 0.00 | 0.00 | 0.00 | 98 | 1007.4 |
| 20260506105211 | 54 | 296 | 0.0 | 0.0 | 0.00 | 0.00 | 0.00 | 98 | 1007.3 |
| 20260506104709 | 54 | 296 | 0.0 | 0.0 | 0.00 | 0.00 | 0.00 | 98 | 1007.2 |
| 20260506104207 | 54 | 296 | 0.0 | 0.0 | 0.00 | 0.00 | 0.00 | 98 | 1007.4 |
| 20260506103703 | 54 | 296 | 0.0 | 0.0 | 0.00 | 0.00 | 0.00 | 98 | 1007.3 |
| 20260506103200 | 54 | 296 | 0.0 | 0.0 | 0.00 | 0.00 | 0.00 | 98 | 1006.9 |
| 20260506102658 | 54 | 297 | 0.0 | 0.0 | 0.00 | 0.00 | 0.00 | 98 | 1007.2 |
| 20260506102156 | 54 | 297 | 0.0 | 0.0 | 0.00 | 0.00 | 0.00 | 98 | 1007.2 |
| 20260506101652 | 54 | 297 | 0.0 | 0.0 | 0.00 | 0.00 | 0.00 | 98 | 1006.9 |
| 20260506101149 | 54 | 297 | 0.0 | 0.0 | 0.00 | 0.00 | 0.00 | 98 | 1007.2 |
| 20260506100648 | 54 | 297 | 0.0 | 0.0 | 0.00 | 0.00 | 0.00 | 98 | 1007.1 |
| 20260506100145 | 54 | 297 | 0.0 | 0.0 | 0.00 | 0.00 | 0.00 | 98 | 1007.2 |
| 20260506095644 | 55 | 297 | 0.0 | 0.0 | 0.00 | 0.00 | 0.00 | 98 | 1007.2 |
| 20260506095140 | 55 | 297 | 0.0 | 0.0 | 0.00 | 0.00 | 0.00 | 98 | 1007.1 |
| 20260506094638 | 54 | 297 | 0.0 | 0.0 | 0.00 | 0.00 | 0.00 | 98 | 1007.2 |
| 20260506094136 | 54 | 297 | 0.0 | 0.0 | 0.00 | 0.00 | 0.00 | 97 | 1007.1 |
| 20260506093634 | 55 | 297 | 0.0 | 0.0 | 0.00 | 0.00 | 0.00 | 97 | 1007.1 |
| 20260506093130 | 55 | 297 | 0.0 | 0.0 | 0.00 | 0.00 | 0.00 | 97 | 1006.9 |
| 20260506092628 | 55 | 297 | 0.0 | 0.0 | 0.00 | 0.00 | 0.00 | 97 | 1007.1 |
| 20260506092125 | 55 | 297 | 0.0 | 0.0 | 0.00 | 0.00 | 0.00 | 97 | 1007.2 |
| 20260506091623 | 55 | 297 | 0.0 | 0.0 | 0.00 | 0.00 | 0.00 | 97 | 1007.3 |
| 20260506091120 | 55 | 297 | 0.0 | 0.0 | 0.00 | 0.00 | 0.00 | 97 | 1007.5 |
| 20260506090618 | 55 | 297 | 0.0 | 0.0 | 0.00 | 0.00 | 0.00 | 97 | 1007.2 |
| 20260506090114 | 55 | 297 | 0.0 | 0.0 | 0.00 | 0.00 | 0.00 | 97 | 1007.2 |
| 20260506085611 | 55 | 297 | 0.0 | 0.0 | 0.00 | 0.00 | 0.00 | 96 | 1007.3 |
| 20260506085108 | 55 | 297 | 0.0 | 0.0 | 0.00 | 0.00 | 0.00 | 96 | 1007.4 |
| 20260506084604 | 56 | 297 | 0.0 | 0.0 | 0.00 | 0.00 | 0.00 | 96 | 1007.3 |
| 20260506084101 | 56 | 297 | 0.0 | 0.0 | 0.00 | 0.00 | 0.00 | 96 | 1007.4 |
| 20260506083558 | 56 | 297 | 0.0 | 0.0 | 0.00 | 0.00 | 0.00 | 96 | 1007.7 |
| 20260506083055 | 56 | 297 | 0.0 | 0.0 | 0.00 | 0.00 | 0.00 | 96 | 1007.9 |
| 20260506082552 | 56 | 297 | 0.0 | 0.0 | 0.00 | 0.00 | 0.00 | 95 | 1007.7 |
| 20260506082048 | 56 | 297 | 0.0 | 0.0 | 0.00 | 0.00 | 0.00 | 94 | 1007.7 |
| 20260506081546 | 56 | 297 | 0.0 | 0.0 | 0.00 | 0.00 | 0.00 | 94 | 1007.8 |
| 20260506081043 | 56 | 297 | 0.0 | 0.0 | 0.00 | 0.00 | 0.00 | 94 | 1007.7 |
| 20260506080540 | 57 | 297 | 0.0 | 0.0 | 0.00 | 0.00 | 0.00 | 94 | 1007.6 |
| 20260506073524 | 57 | 296 | 0.0 | 0.0 | 0.00 | 0.00 | 0.00 | 94 | 1007.5 |
| 20260506073021 | 57 | 296 | 0.0 | 0.0 | 0.00 | 0.00 | 0.00 | 94 | 1007.5 |
| 20260506072518 | 58 | 296 | 0.0 | 0.0 | 0.00 | 0.00 | 0.00 | 91 | 1007.3 |
| 20260506072016 | 58 | 296 | 0.0 | 0.0 | 0.00 | 0.00 | 0.00 | 91 | 1007.3 |
| 20260506071514 | 58 | 296 | 0.0 | 0.0 | 0.00 | 0.00 | 0.00 | 92 | 1007.4 |
| 20260506071011 | 58 | 296 | 0.0 | 0.0 | 0.00 | 0.00 | 0.00 | 92 | 1007.5 |
| 20260506070508 | 58 | 296 | 0.0 | 0.0 | 0.00 | 0.00 | 0.00 | 93 | 1007.5 |
| 20260506062446 | 58 | 296 | 0.0 | 0.0 | 0.00 | 0.00 | 0.00 | 92 | 1007.7 |
| 20260506061941 | 59 | 296 | 0.0 | 0.0 | 0.00 | 0.00 | 0.00 | 91 | 1007.5 |
| 20260506061438 | 58 | 296 | 0.0 | 0.0 | 0.00 | 0.00 | 0.00 | 91 | 1007.4 |
| 20260506060936 | 58 | 296 | 0.0 | 0.0 | 0.00 | 0.00 | 0.00 | 92 | 1007.5 |
| 20260506060434 | 58 | 296 | 0.0 | 0.0 | 0.00 | 0.00 | 0.00 | 92 | 1007.6 |
| 20260506051405 | 59 | 296 | 0.0 | 0.0 | 0.00 | 0.00 | 0.00 | 89 | 1007.6 |
| 20260506050902 | 60 | 295 | 0.0 | 0.0 | 0.00 | 0.00 | 0.00 | 87 | 1007.6 |
| 20260506050400 | 60 | 295 | 0.0 | 0.0 | 0.00 | 0.00 | 0.00 | 86 | 1007.6 |
| 20260506044850 | 59 | 296 | 1.0 | 1.0 | 0.00 | 0.00 | 0.00 | 88 | 1007.3 |
| 20260506044348 | 59 | 296 | 1.0 | 1.0 | 0.00 | 0.00 | 0.00 | 89 | 1007.3 |
| 20260506043845 | 59 | 296 | 0.0 | 0.0 | 0.00 | 0.00 | 0.00 | 88 | 1007.3 |
| 20260506043342 | 59 | 296 | 0.0 | 0.0 | 0.00 | 0.00 | 0.00 | 88 | 1007.4 |
| 20260506042840 | 59 | 296 | 0.0 | 0.0 | 0.00 | 0.00 | 0.00 | 90 | 1007.3 |
| 20260506042339 | 59 | 297 | 0.0 | 0.0 | 0.00 | 0.00 | 0.00 | 91 | 1007.5 |
| 20260506041838 | 58 | 297 | 0.0 | 0.0 | 0.00 | 0.00 | 0.00 | 91 | 1007.3 |
| 20260506041334 | 59 | 297 | 0.0 | 0.0 | 0.00 | 0.00 | 0.00 | 91 | 1007.2 |
| 20260506040831 | 59 | 297 | 0.0 | 0.0 | 0.00 | 0.00 | 0.00 | 90 | 1007.3 |
| 20260506040329 | 60 | 295 | 1.0 | 1.0 | 0.00 | 0.00 | 0.00 | 89 | 1007.2 |
| 20260506035825 | 59 | 259 | 0.0 | 0.0 | 0.00 | 0.06 | 0.06 | 87 | 1007.3 |
| 20260506035323 | 59 | 259 | 0.0 | 0.0 | 0.00 | 0.06 | 0.06 | 89 | 1007.4 |
| 20260506034820 | 59 | 259 | 0.0 | 0.0 | 0.00 | 0.06 | 0.06 | 90 | 1007.2 |
| 20260506034317 | 58 | 259 | 0.0 | 0.0 | 0.00 | 0.06 | 0.06 | 90 | 1007.2 |
| 20260506033814 | 58 | 259 | 0.0 | 0.0 | 0.00 | 0.06 | 0.06 | 92 | 1007.1 |
| 20260506033311 | 58 | 260 | 0.0 | 0.0 | 0.00 | 0.06 | 0.06 | 91 | 1006.9 |
| 20260506032807 | 59 | 249 | 0.0 | 0.0 | 0.00 | 0.06 | 0.06 | 91 | 1006.8 |
| 20260506032306 | 59 | 249 | 0.0 | 0.0 | 0.00 | 0.06 | 0.06 | 90 | 1006.8 |
| 20260506031801 | 59 | 249 | 0.0 | 0.0 | 0.00 | 0.06 | 0.06 | 90 | 1007.1 |
| 20260506031259 | 59 | 248 | 0.0 | 0.0 | 0.00 | 0.06 | 0.06 | 89 | 1007.1 |
| 20260506030756 | 59 | 248 | 0.0 | 0.0 | 0.00 | 0.06 | 0.06 | 90 | 1007.1 |
| 20260506030254 | 59 | 248 | 0.0 | 0.0 | 0.00 | 0.06 | 0.06 | 89 | 1007.2 |
| 20260506025750 | 59 | 247 | 0.0 | 0.0 | 0.00 | 0.06 | 0.06 | 89 | 1007.2 |
| 20260506025247 | 59 | 247 | 0.0 | 0.0 | 0.00 | 0.06 | 0.06 | 89 | 1007.2 |
| 20260506024744 | 59 | 247 | 0.0 | 0.0 | 0.00 | 0.06 | 0.06 | 89 | 1006.9 |
| 20260506024240 | 59 | 247 | 0.0 | 0.0 | 0.00 | 0.06 | 0.06 | 89 | 1006.9 |
| 20260506023736 | 59 | 247 | 0.0 | 0.0 | 0.00 | 0.06 | 0.06 | 90 | 1007.2 |
| 20260506023234 | 59 | 247 | 0.0 | 0.0 | 0.00 | 0.06 | 0.06 | 89 | 1006.9 |
| 20260506022730 | 59 | 247 | 0.0 | 0.0 | 0.00 | 0.06 | 0.06 | 88 | 1007.1 |
| 20260506022228 | 59 | 247 | 0.0 | 0.0 | 0.00 | 0.06 | 0.06 | 88 | 1007.1 |
| 20260506021726 | 60 | 247 | 0.0 | 0.0 | 0.00 | 0.06 | 0.06 | 86 | 1006.9 |
| 20260506021223 | 60 | 247 | 0.0 | 0.0 | 0.00 | 0.06 | 0.06 | 86 | 1006.8 |
| 20260506020720 | 59 | 247 | 0.0 | 0.0 | 0.00 | 0.06 | 0.06 | 86 | 1006.7 |
| 20260506020218 | 59 | 247 | 0.0 | 0.0 | 0.00 | 0.06 | 0.06 | 87 | 1006.6 |
| 20260506015710 | 59 | 247 | 0.0 | 0.0 | 0.00 | 0.06 | 0.06 | 88 | 1006.7 |
| 20260506015207 | 60 | 247 | 0.0 | 0.0 | 0.00 | 0.06 | 0.06 | 87 | 1006.7 |
| 20260506014704 | 60 | 247 | 0.0 | 0.0 | 0.00 | 0.06 | 0.06 | 86 | 1006.8 |
| 20260506014200 | 60 | 247 | 0.0 | 0.0 | 0.00 | 0.06 | 0.06 | 83 | 1006.6 |
| 20260506013658 | 61 | 247 | 0.0 | 0.0 | 0.00 | 0.06 | 0.06 | 83 | 1006.5 |
| 20260506013155 | 60 | 247 | 0.0 | 0.0 | 0.00 | 0.06 | 0.06 | 80 | 1006.4 |
| 20260506012651 | 60 | 247 | 0.0 | 1.0 | 0.00 | 0.06 | 0.06 | 84 | 1006.4 |
| 20260506012148 | 60 | 247 | 0.0 | 0.0 | 0.00 | 0.06 | 0.06 | 83 | 1006.4 |
| 20260506011646 | 60 | 224 | 0.0 | 0.0 | 0.00 | 0.06 | 0.06 | 83 | 1006.3 |
| 20260506011141 | 60 | 223 | 0.0 | 0.0 | 0.00 | 0.06 | 0.06 | 82 | 1006.3 |
| 20260506010640 | 61 | 223 | 0.0 | 0.0 | 0.00 | 0.06 | 0.06 | 83 | 1006.1 |
| 20260506010137 | 61 | 223 | 0.0 | 0.0 | 0.00 | 0.06 | 0.06 | 83 | 1006.2 |
| 20260506005633 | 61 | 222 | 0.0 | 0.0 | 0.00 | 0.06 | 0.06 | 83 | 1006.4 |
| 20260506005130 | 61 | 222 | 0.0 | 0.0 | 0.00 | 0.06 | 0.06 | 82 | 1006.3 |
| 20260506004621 | 61 | 222 | 0.0 | 0.0 | 0.00 | 0.06 | 0.06 | 83 | 1006.3 |
| 20260506004118 | 61 | 223 | 0.0 | 0.0 | 0.00 | 0.06 | 0.06 | 83 | 1006.1 |
| 20260506003614 | 61 | 223 | 0.0 | 0.0 | 0.00 | 0.06 | 0.06 | 84 | 1006.0 |
| 20260506003110 | 61 | 222 | 0.0 | 0.0 | 0.00 | 0.06 | 0.06 | 84 | 1005.8 |
| 20260506002607 | 61 | 222 | 0.0 | 0.0 | 0.00 | 0.06 | 0.06 | 84 | 1005.8 |
| 20260506002103 | 61 | 244 | 0.0 | 0.0 | 0.00 | 0.06 | 0.06 | 84 | 1005.9 |
| 20260506001559 | 61 | 244 | 0.0 | 0.0 | 0.00 | 0.06 | 0.06 | 84 | 1006.1 |
| 20260506001056 | 61 | 244 | 0.0 | 0.0 | 0.00 | 0.06 | 0.06 | 84 | 1006.0 |
| 20260506000554 | 61 | 244 | 0.0 | 0.0 | 0.00 | 0.06 | 0.06 | 84 | 1005.9 |
| 20260506000051 | 61 | 244 | 1.0 | 1.0 | 0.00 | 0.06 | 0.06 | 85 | 1005.8 |
| 20260505235549 | 61 | 244 | 1.0 | 1.0 | 0.00 | 0.06 | 0.06 | 86 | 1005.7 |
| 20260505235046 | 62 | 242 | 0.0 | 0.0 | 0.00 | 0.06 | 0.06 | 86 | 1006.0 |
| 20260505234543 | 61 | 234 | 0.0 | 0.0 | 0.00 | 0.06 | 0.06 | 89 | 1006.0 |
| 20260505234039 | 61 | 234 | 0.0 | 0.0 | 0.00 | 0.06 | 0.06 | 89 | 1006.0 |
| 20260505233537 | 61 | 272 | 0.0 | 0.0 | 0.00 | 0.06 | 0.06 | 89 | 1005.9 |
| 20260505233034 | 61 | 249 | 1.0 | 1.0 | 0.00 | 0.06 | 0.06 | 90 | 1005.8 |
| 20260505232532 | 61 | 249 | 0.0 | 0.0 | 0.00 | 0.06 | 0.06 | 88 | 1005.7 |
| 20260505232029 | 61 | 249 | 0.0 | 0.0 | 0.00 | 0.06 | 0.06 | 91 | 1005.8 |
| 20260505231526 | 61 | 249 | 0.0 | 0.0 | 0.00 | 0.06 | 0.06 | 92 | 1005.5 |
| 20260505231025 | 61 | 248 | 1.0 | 1.0 | 0.00 | 0.06 | 0.06 | 93 | 1005.4 |
| 20260505230522 | 61 | 248 | 1.0 | 2.0 | 0.00 | 0.06 | 0.06 | 94 | 1005.5 |
| 20260505230018 | 61 | 247 | 0.0 | 1.0 | 0.00 | 0.06 | 0.06 | 94 | 1005.5 |
| 20260505225515 | 61 | 253 | 0.0 | 0.0 | 0.00 | 0.06 | 0.06 | 93 | 1005.1 |
| 20260505225011 | 61 | 244 | 0.0 | 1.0 | 0.00 | 0.06 | 0.06 | 92 | 1005.2 |
| 20260505224508 | 61 | 195 | 1.0 | 1.0 | 0.00 | 0.06 | 0.06 | 92 | 1004.9 |
| 20260505224005 | 61 | 195 | 0.0 | 0.0 | 0.00 | 0.06 | 0.06 | 93 | 1005.2 |
| 20260505223502 | 62 | 271 | 0.0 | 1.0 | 0.00 | 0.06 | 0.06 | 93 | 1005.1 |
| 20260505222958 | 62 | 199 | 0.0 | 0.0 | 0.00 | 0.06 | 0.06 | 93 | 1005.1 |
| 20260505222455 | 62 | 358 | 1.0 | 2.0 | 0.00 | 0.06 | 0.06 | 89 | 1005.1 |
| 20260505221950 | 62 | 249 | 0.0 | 0.0 | 0.00 | 0.06 | 0.06 | 93 | 1005.3 |
| 20260505221448 | 61 | 247 | 0.0 | 1.0 | 0.00 | 0.06 | 0.06 | 95 | 1005.1 |
| 20260505220945 | 61 | 232 | 0.0 | 1.0 | 0.00 | 0.06 | 0.06 | 95 | 1004.8 |
| 20260505220442 | 61 | 218 | 1.0 | 1.0 | 0.00 | 0.06 | 0.06 | 98 | 1004.7 |
| 20260505215939 | 61 | 276 | 1.0 | 1.0 | 0.00 | 0.06 | 0.06 | 99 | 1004.8 |
| 20260505215438 | 61 | 284 | 0.0 | 0.0 | 0.00 | 0.06 | 0.06 | 99 | 1005.1 |
| 20260505214935 | 60 | 295 | 0.0 | 0.0 | 0.00 | 0.06 | 0.06 | 99 | 1005.0 |
| 20260505214433 | 60 | 295 | 0.0 | 0.0 | 0.00 | 0.06 | 0.06 | 99 | 1004.9 |
| 20260505213930 | 60 | 294 | 0.0 | 0.0 | 0.00 | 0.06 | 0.06 | 99 | 1004.7 |
| 20260505213427 | 60 | 294 | 0.0 | 0.0 | 0.00 | 0.06 | 0.06 | 99 | 1004.6 |
| 20260505212923 | 60 | 294 | 0.0 | 0.0 | 0.00 | 0.06 | 0.06 | 99 | 1004.6 |
| 20260505212421 | 60 | 294 | 0.0 | 0.0 | 0.00 | 0.06 | 0.06 | 99 | 1004.5 |